{"data":{"norad_id":56292,"intl_designator":"2023-056G","name":"STARLINK-30098","alt_names":[],"object_type":"PAYLOAD","status":"ACTIVE","operator":null,"country":"US","launch_date":"2023-04-19","launch_site_code":"AFETR","launch_vehicle":null,"mission":null,"orbit_class":"UNKNOWN","rcs_meters":null,"size_class":null,"mass_kg":null,"dimensions":null,"purposes":["comms"],"wikipedia_slug":null,"has_3d_model":false,"image_url":null,"decayed_at":null,"tle_current":{"epoch":"2026-09-20T04:17:23.686368Z","epoch_age_seconds":136421,"freshness":"FRESH","line1":"1 56292U 23056G   26263.17874637  .00002431  00000+0  97831-4 0  9993","line2":"2 56292  43.0017 190.6212 0000943 268.6465  91.4279 15.27581410189784","mean_motion":15.2758141,"eccentricity":9.43e-5,"inclination_deg":43.0017,"raan_deg":190.6212,"arg_perigee_deg":268.6465,"mean_anomaly_deg":91.4279,"bstar":9.7831e-5,"rev_number":18978,"period_min":94.266661702829,"perigee_km":482.39786454494,"apogee_km":483.69188344637,"semimajor_km":6861.1818739957,"source":"CELESTRAK","updated_at":"2026-09-21T09:00:33.392377Z"}}}